TimePST,TemperatureF,Dew PointF,Humidity,Sea Level PressureIn,VisibilityMPH,Wind Direction,Wind SpeedMPH,Gust SpeedMPH,PrecipitationIn,Events,Conditions,WindDirDegrees,DateUTC
12:53 AM,41.0,7.0,25,30.13,10.0,NE,6.9,-,N/A,,Clear,40,2013-02-22 08:53:00
1:53 AM,41.0,8.1,26,30.13,10.0,NNE,6.9,-,N/A,,Clear,20,2013-02-22 09:53:00
2:53 AM,39.0,9.0,29,30.13,10.0,NNW,8.1,-,N/A,,Clear,330,2013-02-22 10:53:00
3:53 AM,42.1,9.0,26,30.13,10.0,North,15.0,-,N/A,,Clear,350,2013-02-22 11:53:00
4:53 AM,41.0,9.0,27,30.17,10.0,North,3.5,-,N/A,,Clear,350,2013-02-22 12:53:00
5:53 AM,37.9,10.0,32,30.18,10.0,Calm,Calm,-,N/A,,Clear,0,2013-02-22 13:53:00
6:53 AM,37.9,10.9,33,30.20,10.0,NW,4.6,-,N/A,,Clear,310,2013-02-22 14:53:00
7:53 AM,42.1,10.0,27,30.23,10.0,NW,4.6,-,N/A,,Clear,320,2013-02-22 15:53:00
8:53 AM,45.0,10.0,24,30.25,10.0,Calm,Calm,-,N/A,,Clear,0,2013-02-22 16:53:00
9:53 AM,48.0,10.0,22,30.24,10.0,SSE,4.6,-,N/A,,Clear,150,2013-02-22 17:53:00
10:53 AM,52.0,10.0,19,30.24,10.0,Variable,5.8,-,N/A,,Clear,0,2013-02-22 18:53:00
11:53 AM,52.0,10.0,19,30.22,10.0,SSE,5.8,-,N/A,,Clear,160,2013-02-22 19:53:00
12:53 PM,53.1,10.9,19,30.19,10.0,SE,8.1,-,N/A,,Clear,130,2013-02-22 20:53:00
1:53 PM,55.0,10.0,17,30.15,10.0,Variable,3.5,-,N/A,,Clear,0,2013-02-22 21:53:00
2:53 PM,55.9,10.9,17,30.16,10.0,ESE,4.6,-,N/A,,Clear,110,2013-02-22 22:53:00
3:53 PM,55.9,10.9,17,30.15,10.0,Calm,Calm,-,N/A,,Clear,0,2013-02-22 23:53:00
4:53 PM,55.9,10.9,17,30.15,10.0,SE,5.8,-,N/A,,Clear,140,2013-02-23 00:53:00
5:53 PM,53.1,12.9,20,30.16,10.0,SE,5.8,-,N/A,,Clear,130,2013-02-23 01:53:00
6:53 PM,51.1,12.9,22,30.17,10.0,SE,4.6,-,N/A,,Clear,130,2013-02-23 02:53:00
7:53 PM,48.9,14.0,25,30.18,10.0,ESE,3.5,-,N/A,,Clear,110,2013-02-23 03:53:00
8:53 PM,46.9,15.1,28,30.19,10.0,North,3.5,-,N/A,,Clear,360,2013-02-23 04:53:00
9:53 PM,44.1,16.0,32,30.18,10.0,Calm,Calm,-,N/A,,Clear,0,2013-02-23 05:53:00
10:53 PM,42.1,15.1,34,30.17,10.0,NW,3.5,-,N/A,,Clear,320,2013-02-23 06:53:00
11:53 PM,39.9,15.1,36,30.16,10.0,NW,4.6,-,N/A,,Clear,320,2013-02-23 07:53:00